Location: Beutels
(47.8767°N, 9.8584°E)
Time: 00:58:37
(UTC+00:00)

NOSS 2-1 (C) - Pass Details

Date: 19 May 2025
Orbit: 378 x 1699 km, 63.3° (Epoch: 15 June)

Event Time Altitude Azimuth Distance (km) Brightness Sun altitude
Exits shadow 22:55:45 37° 295° (WNW) 652 3.9 -22.0°
Maximum altitude 22:56:07 39° 315° (NW) 623 3.9 -22.0°
Drops below altitude 10° 22:58:59 10° 28° (NNE) 1,411 6.2 -22.0°
Sets 23:01:00 0° 36° (NE) 2,260 7.2 -22.0°
